This is the latest recevied weather packets stored in our database for station/object GBTWP-2. If no packets are shown the sender has not sent any weather packets the latest 10 day(s).
| Time | Temp. | Humidity | Pressure | Rain* | Wind** | Luminosity | Snow |
|---|---|---|---|---|---|---|---|
| 1777734302 | 6.67° C | 46% | 1020.4 hPa | 0 mm | - | 95 W/m² | - |
| 1777734001 | 6.11° C | 49% | 1020.3 hPa | 0 mm | - | 114 W/m² | - |
| 1777733702 | 6.67° C | 47% | 1020.5 hPa | 0 mm | - | 97 W/m² | - |
| 1777733401 | 6.11° C | 52% | 1020.4 hPa | 0 mm | - | 71 W/m² | - |
| 1777733102 | 5.56° C | 52% | 1020.2 hPa | 0 mm | - | 61 W/m² | - |
| 1777732801 | 6.67° C | 50% | 1020.4 hPa | 0 mm | - | 100 W/m² | - |
| 1777732502 | 6.67° C | 50% | 1020.3 hPa | 0 mm | - | 105 W/m² | - |
| 1777732202 | 6.67° C | 50% | 1020.3 hPa | 0 mm | - | 136 W/m² | - |
| 1777731901 | 6.67° C | 50% | 1020.3 hPa | 0 mm | - | 95 W/m² | - |
| 1777731301 | 6.67° C | 53% | 1020.5 hPa | 0 mm | - | 99 W/m² | - |
| 1777731002 | 5.56° C | 51% | 1020.4 hPa | 0 mm | - | 61 W/m² | - |
| 1777730402 | 5.56° C | 57% | 1020.4 hPa | 0 mm | - | 44 W/m² | - |
| 1777730101 | 6.11° C | 55% | 1020.5 hPa | 0 mm | - | 222 W/m² | - |
| 1777729802 | 6.67° C | 58% | 1020.5 hPa | 0 mm | - | 64 W/m² | - |
| 1777729202 | 5.56° C | 58% | 1020.6 hPa | 0 mm | - | 122 W/m² | - |
| 1777728902 | 5.56° C | 59% | 1020.3 hPa | 0 mm | - | 142 W/m² | - |
| 1777728602 | 5.56° C | 63% | 1020.7 hPa | 0 mm | - | 57 W/m² | - |
| 1777728002 | 5.56° C | 60% | 1020.7 hPa | 0 mm | - | 28 W/m² | - |
| 1777727702 | 5° C | 62% | 1020.8 hPa | 0 mm | - | 99 W/m² | - |
| 1777726801 | 5° C | 66% | 1020.6 hPa | 0 mm | - | 31 W/m² | - |
| 1777725902 | 4.44° C | 67% | 1020.4 hPa | 0 mm | - | 26 W/m² | - |
| 1777725602 | 4.44° C | 68% | 1020.4 hPa | 0 mm | - | 76 W/m² | - |
| 1777725301 | 4.44° C | 68% | 1020.5 hPa | 0 mm | - | 25 W/m² | - |
| 1777725002 | 4.44° C | 70% | 1020.5 hPa | 0 mm | - | 30 W/m² | - |
| 1777724701 | 3.89° C | 71% | 1020.6 hPa | 0 mm | - | 26 W/m² | - |
* Rain latest hour (hover to see other rain measurements)
** Current wind speed in m/s (hover to see current wind gust speed)